Location: ????????
(56.0167°N, 38.0333°E)
Time: 18:44:16
(UTC+00:00)

Cosmos 1934 Rocket - Pass Details

Date: 12 August 2025
Orbit: 937 x 998 km, 83.0° (Epoch: 13 December)

Event Time Altitude Azimuth Distance (km) Brightness Sun altitude
Exits shadow 22:09:18 - 132° (SE) 2,782 6.1 -18.9°
Reaches altitude 10° 22:09:33 10° 131° (SE) 2,711 6.0 -18.9°
Maximum altitude 22:14:19 24° 80° (E) 1,882 5.7 -18.8°
Drops below altitude 10° 22:19:03 10° 30° (NNE) 2,692 7.4 -18.6°
Sets 22:21:59 0° 17° (NNE) 3,633 8.7 -18.6°
